User: anonymous   Login
Location: Keeble Observatory
(37.7625°N, 77.4755°W)
Time: 16:16:54
(UTC-04:00)
Language:

Cosmos 1484 Rocket - Orbit

View from above orbital plane
View from above orbital plane
View from above satellite
View from above satellite

Ground track
Ground track

The orbit data is extracted from the following two-line orbital elements,

1 14208U 83075B   17229.91254537 +.00000412 +00000-0 +28476-4 0  9993
2 14208 097.3409 237.9470 0037632 278.6323 081.0644 15.10433661856522
Epoch (UTC): 17 August 2017 21:54:03
Eccentricity: 0.0037632
inclination: 97.3409°
perigee height: 509 km
apogee height: 561 km
right ascension of ascending node: 237.9470°
argument of perigee: 278.6323°
revolutions per day: 15.10433661
mean anomaly at epoch: 81.0644°
orbit number at epoch: 85652

The dashed part of the orbit path shows where the satellite is in the earth's shadow,  

DLR